Location: Sungai Bunut
(2.6333°N, 113.7333°E)
Time: 10:37:41
(UTC+00:00)

Transit 2A - Pass Details

Date: 10 December 2023
Orbit: 599 x 953 km, 66.7° (Epoch: 01 March)

Event Time Altitude Azimuth Distance (km) Brightness Sun altitude
Rises 15:57:07 0° 11° (N) 2,931 - -69.1°
Reaches altitude 10° 16:00:06 10° 32° (NNE) 2,079 - -69.3°
Maximum altitude 16:03:03 16° 71° (ENE) 1,744 - -69.4°
Drops below altitude 10° 16:06:10 10° 110° (ESE) 2,214 - -69.5°
Sets 16:09:28 0° 130° (SE) 3,218 - -69.6°
